Waarnemingen

Advertentie
Mijn weer
Europlatform, Nederland (6321): temperatuur & dauwpunt: 18.11.2017 17:00:00 - 24.11.2017 17:00:00 (CET)Europlatform, Nederland (6321): water temperatuur: 18.11.2017 17:00:00 - 24.11.2017 17:00:00 (CET)Europlatform, Nederland (6321): windsnelheid & windstoten: 18.11.2017 17:00:00 - 24.11.2017 17:00:00 (CET)Europlatform, Nederland (6321): windrichting: 18.11.2017 17:00:00 - 24.11.2017 17:00:00 (CET)Europlatform, Nederland (6321): luchtdruk: 18.11.2017 17:00:00 - 24.11.2017 17:00:00 (CET)Europlatform, Nederland (6321): zicht: 18.11.2017 17:00:00 - 24.11.2017 17:00:00 (CET)
Datum & Tijd tt [°C] td [°C] tw [°C] ff [km/u] ff [kn] fx [km/u] fx [kn] dd ppp [hPa] vv [km]
24.11.2017 17:00:00 - - - - - - - - - -
24.11.2017 16:00:00 9,0 2,0 - 14 8 - - W 1011,6 47
24.11.2017 15:00:00 9,0 1,0 - 18 10 22 12 W 1011,2 41
24.11.2017 14:00:00 9,0 2,0 12,1 18 10 25 14 W 1011,1 43
24.11.2017 13:00:00 10,0 2,0 12,0 18 10 - - W 1010,7 37
24.11.2017 12:00:00 10,0 2,0 12,0 22 12 25 14 WNW 1010,3 40
24.11.2017 11:00:00 10,0 2,0 12,1 18 10 25 14 W 1009,9 40
24.11.2017 10:00:00 9,0 4,0 12,1 24 13 - - WNW 1009,1 10
24.11.2017 09:00:00 9,0 5,0 12,1 11 6 36 19 WZW 1008,1 10
24.11.2017 08:00:00 9,0 5,0 12,1 21 11 25 14 WZW 1007,6 10
24.11.2017 07:00:00 9,0 4,0 12,1 11 6 - - ZW 1007,0 10
24.11.2017 06:00:00 8,0 5,0 12,1 8 4 25 14 WZW 1006,1 10
24.11.2017 05:00:00 9,0 5,0 12,2 21 11 29 16 W 1006,1 10
24.11.2017 04:00:00 9,0 4,0 12,2 22 12 - - ZW 1006,2 10
24.11.2017 03:00:00 9,0 5,0 12,2 29 16 32 18 ZZW 1006,7 10
24.11.2017 02:00:00 10,0 4,0 12,2 28 15 43 23 WZW 1006,5 10
24.11.2017 01:00:00 11,0 5,0 12,2 26 14 - - WZW 1006,5 10
24.11.2017 00:00:00 11,0 5,0 12,2 31 17 36 19 WZW 1006,8 10
23.11.2017 23:00:00 11,0 5,0 12,2 34 18 43 23 WZW 1006,5 10
23.11.2017 22:00:00 12,0 4,0 12,3 41 22 - - WZW 1007,0 10
23.11.2017 21:00:00 12,0 4,0 12,3 44 24 54 29 ZW 1006,7 10
23.11.2017 20:00:00 12,0 4,0 12,3 50 27 61 33 ZW 1006,1 10
23.11.2017 19:00:00 12,0 4,0 12,3 50 27 - - ZW 1005,7 10
23.11.2017 18:00:00 12,0 4,0 12,3 50 27 68 37 ZW 1004,7 10
23.11.2017 17:00:00 12,0 3,0 12,3 59 32 68 37 ZW 1003,9 10
23.11.2017 16:00:00 12,0 3,0 12,3 57 31 - - ZW 1002,9 10
23.11.2017 15:00:00 11,0 4,0 12,3 50 27 58 31 ZW 1002,0 10
23.11.2017 14:00:00 11,0 3,0 12,3 46 25 61 33 WZW 1000,8 10
23.11.2017 13:00:00 12,0 6,0 12,4 52 28 - - WZW 999,4 10
23.11.2017 12:00:00 12,0 10,0 12,3 39 21 76 41 WZW 997,4 5
23.11.2017 11:00:00 14,0 11,0 12,3 57 31 61 33 ZZW 996,4 10
23.11.2017 10:00:00 14,0 11,0 12,3 57 31 - - ZZW 995,3 10
23.11.2017 09:00:00 13,0 11,0 12,4 72 39 79 43 ZZW 993,2 9
23.11.2017 08:00:00 12,0 9,0 12,4 72 39 83 45 Z 991,3 6
23.11.2017 07:00:00 13,0 8,0 12,3 76 41 - - Z 990,8 10
23.11.2017 06:00:00 13,0 7,0 12,4 74 40 83 45 Z 990,5 10
23.11.2017 05:00:00 14,0 7,0 12,3 72 39 79 43 Z 990,9 10
23.11.2017 04:00:00 14,0 7,0 12,3 70 38 - - Z 991,6 10
23.11.2017 03:00:00 13,0 7,0 12,3 68 37 79 43 Z 992,3 10
23.11.2017 02:00:00 13,0 7,0 12,3 65 35 72 39 Z 992,7 10
23.11.2017 01:00:00 14,0 7,0 12,4 63 34 - - Z 993,9 10
23.11.2017 00:00:00 14,0 7,0 12,3 67 36 76 41 Z 994,6 10
22.11.2017 23:00:00 13,0 7,0 12,3 65 35 76 41 Z 994,9 10
22.11.2017 22:00:00 13,0 7,0 12,4 65 35 - - Z 995,6 10
22.11.2017 21:00:00 13,0 6,0 12,4 65 35 72 39 Z 996,2 10
22.11.2017 20:00:00 12,0 7,0 12,4 68 37 72 39 Z 996,8 10
22.11.2017 19:00:00 13,0 7,0 12,4 63 34 - - Z 997,8 10
22.11.2017 18:00:00 13,0 7,0 12,4 61 33 68 37 Z 998,7 10
22.11.2017 17:00:00 13,0 8,0 12,3 57 31 61 33 Z 999,0 10
22.11.2017 16:00:00 13,0 8,0 12,3 57 31 - - Z 999,5 10
22.11.2017 15:00:00 12,0 8,0 12,4 59 32 68 37 Z 1000,2 10
22.11.2017 14:00:00 12,0 9,0 12,4 57 31 61 33 Z 1001,2 10
22.11.2017 13:00:00 12,0 9,0 12,4 55 30 - - Z 1001,8 10
22.11.2017 12:00:00 12,0 9,0 12,4 50 27 58 31 Z 1002,7 10
22.11.2017 11:00:00 12,0 9,0 12,4 50 27 61 33 Z 1003,9 10
22.11.2017 10:00:00 12,0 9,0 12,4 52 28 - - Z 1004,1 10
22.11.2017 09:00:00 12,0 10,0 12,3 52 28 58 31 Z 1003,9 10
22.11.2017 08:00:00 13,0 10,0 12,4 52 28 61 33 ZZW 1003,9 10
22.11.2017 07:00:00 13,0 11,0 12,4 55 30 - - ZZW 1003,7 10
22.11.2017 06:00:00 13,0 11,0 12,4 57 31 68 37 ZZW 1004,0 10
22.11.2017 05:00:00 13,0 11,0 12,4 63 34 68 37 ZZW 1004,1 9
22.11.2017 04:00:00 13,0 11,0 12,3 59 32 - - ZZW 1004,4 10
22.11.2017 03:00:00 13,0 11,0 12,4 61 33 65 35 ZZW 1004,7 10
22.11.2017 02:00:00 13,0 11,0 12,4 59 32 65 35 ZZW 1005,0 4,4
22.11.2017 01:00:00 13,0 11,0 12,4 59 32 - - ZZW 1005,4 10
22.11.2017 00:00:00 13,0 11,0 12,4 52 28 61 33 ZZW 1005,6 10
21.11.2017 23:00:00 13,0 11,0 12,4 55 30 61 33 ZZW 1006,1 10
21.11.2017 22:00:00 13,0 11,0 12,4 59 32 - - ZZW 1006,5 10
21.11.2017 21:00:00 13,0 11,0 12,4 46 25 58 31 ZZW 1007,0 10
21.11.2017 20:00:00 13,0 10,0 12,4 48 26 54 29 ZW 1007,6 10
21.11.2017 19:00:00 13,0 11,0 12,4 52 28 - - ZZW 1007,9 10
21.11.2017 18:00:00 13,0 11,0 12,4 48 26 50 27 ZZW 1008,4 10
21.11.2017 17:00:00 13,0 11,0 12,4 48 26 54 29 ZZW 1008,7 10
21.11.2017 16:00:00 13,0 11,0 12,4 50 27 - - ZZW 1009,1 10
21.11.2017 15:00:00 13,0 11,0 12,4 46 25 50 27 ZW 1009,4 10
21.11.2017 14:00:00 13,0 10,0 12,4 44 24 50 27 ZW 1009,8 10
21.11.2017 13:00:00 13,0 10,0 12,4 35 19 - - ZW 1010,2 10
21.11.2017 12:00:00 13,0 11,0 12,4 37 20 43 23 WZW 1010,7 10
21.11.2017 11:00:00 13,0 11,0 12,3 35 19 43 23 WZW 1011,0 10
21.11.2017 10:00:00 13,0 11,0 12,4 34 18 - - WZW 1010,9 10
21.11.2017 09:00:00 13,0 11,0 12,4 39 21 43 23 WZW 1010,7 10
21.11.2017 08:00:00 13,0 12,0 12,4 34 18 40 21 ZW 1010,4 10
21.11.2017 07:00:00 12,0 12,0 12,4 31 17 - - WZW 1010,4 2,2
21.11.2017 06:00:00 13,0 12,0 12,4 29 16 32 18 WZW 1010,6 10
21.11.2017 05:00:00 13,0 12,0 12,4 28 15 36 19 WZW 1010,9 10
21.11.2017 04:00:00 13,0 12,0 12,4 34 18 - - WZW 1011,0 10
21.11.2017 03:00:00 13,0 12,0 12,4 31 17 36 19 WZW 1011,3 10
21.11.2017 02:00:00 13,0 12,0 12,4 29 16 32 18 WZW 1011,4 10
21.11.2017 01:00:00 13,0 11,0 12,4 31 17 - - WZW 1011,3 10
21.11.2017 00:00:00 13,0 11,0 12,4 35 19 43 23 W 1011,1 10
20.11.2017 23:00:00 13,0 11,0 12,4 39 21 43 23 WZW 1011,2 10
20.11.2017 22:00:00 13,0 11,0 12,5 42 23 - - WZW 1011,0 10
20.11.2017 21:00:00 13,0 11,0 12,4 46 25 50 27 WZW 1010,9 10
20.11.2017 20:00:00 13,0 11,0 12,4 50 27 58 31 WZW 1010,7 10
20.11.2017 19:00:00 13,0 11,0 12,4 50 27 - - WZW 1010,6 10
20.11.2017 18:00:00 12,0 10,0 12,4 50 27 61 33 WZW 1010,5 10
20.11.2017 17:00:00 13,0 10,0 12,3 46 25 58 31 WZW 1010,6 10
20.11.2017 16:00:00 13,0 10,0 12,3 50 27 - - WZW 1010,8 10
20.11.2017 15:00:00 12,0 10,0 12,4 46 25 54 29 WZW 1011,2 10
20.11.2017 14:00:00 12,0 10,0 12,4 46 25 58 31 WZW 1011,8 5
20.11.2017 13:00:00 11,0 10,0 12,4 41 22 - - WZW 1012,8 3,2
20.11.2017 12:00:00 11,0 10,0 12,4 41 22 50 27 ZW 1013,8 3,2
20.11.2017 11:00:00 10,0 10,0 12,4 41 22 47 25 ZZW 1014,7 2,5
20.11.2017 10:00:00 9,0 8,0 12,4 46 25 - - Z 1015,1 8
20.11.2017 09:00:00 9,0 8,0 12,4 44 24 47 25 Z 1016,1 3,9
20.11.2017 08:00:00 9,0 6,0 12,4 37 20 36 19 ZZW 1017,2 10
20.11.2017 07:00:00 8,0 4,0 12,4 28 15 - - ZZW 1018,3 10
20.11.2017 06:00:00 9,0 4,0 12,4 28 15 32 18 ZW 1019,2 10
20.11.2017 05:00:00 9,0 3,0 12,4 24 13 36 19 ZW 1019,4 10
20.11.2017 04:00:00 9,0 2,0 12,4 26 14 - - WZW 1019,7 10
20.11.2017 03:00:00 9,0 1,0 12,3 26 14 32 18 WZW 1020,4 10
20.11.2017 02:00:00 9,0 1,0 12,4 24 13 32 18 WZW 1021,1 10
20.11.2017 01:00:00 8,0 2,0 12,4 28 15 - - WZW 1021,7 10
20.11.2017 00:00:00 8,0 1,0 12,4 26 14 32 18 W 1022,1 10
19.11.2017 23:00:00 8,0 2,0 12,4 28 15 29 16 W 1022,4 10
19.11.2017 22:00:00 8,0 2,0 12,5 24 13 - - W 1022,4 10
19.11.2017 21:00:00 9,0 2,0 12,5 29 16 36 19 W 1022,4 10
19.11.2017 20:00:00 8,0 2,0 12,6 31 17 36 19 W 1021,9 10
19.11.2017 19:00:00 9,0 3,0 12,6 35 19 - - W 1022,0 10
19.11.2017 18:00:00 9,0 2,0 12,6 39 21 43 23 WNW 1021,7 10
19.11.2017 17:00:00 9,0 3,0 12,6 37 20 43 23 WNW 1021,4 10
19.11.2017 16:00:00 9,0 3,0 12,6 41 22 - - W 1021,2 10
19.11.2017 15:00:00 9,0 4,0 12,6 41 22 43 23 WNW 1021,0 10
19.11.2017 14:00:00 9,0 4,0 12,6 42 23 47 25 WNW 1020,9 10
19.11.2017 13:00:00 9,0 5,0 12,6 44 24 - - WNW 1020,7 10
19.11.2017 12:00:00 9,0 4,0 12,6 44 24 50 27 WNW 1020,4 10
19.11.2017 11:00:00 9,0 4,0 12,7 46 25 54 29 WNW 1020,2 10
19.11.2017 10:00:00 9,0 5,0 12,6 46 25 - - WNW 1019,6 10
19.11.2017 09:00:00 8,0 4,0 12,7 34 18 58 31 NW 1019,1 10
19.11.2017 08:00:00 9,0 4,0 12,7 46 25 54 29 WNW 1018,4 10
19.11.2017 07:00:00 9,0 4,0 12,7 46 25 - - WNW 1018,0 10
19.11.2017 06:00:00 9,0 4,0 12,7 44 24 50 27 WNW 1017,7 10
19.11.2017 05:00:00 9,0 4,0 12,7 44 24 50 27 WNW 1017,6 10
19.11.2017 04:00:00 9,0 3,0 12,7 48 26 - - WNW 1017,4 10
19.11.2017 03:00:00 9,0 2,0 12,7 48 26 50 27 WNW 1017,3 10
19.11.2017 02:00:00 8,0 3,0 12,7 50 27 61 33 WNW 1017,1 10
19.11.2017 01:00:00 9,0 0,0 12,7 48 26 - - WNW 1017,0 10
19.11.2017 00:00:00 9,0 -1,0 12,8 48 26 58 31 WNW 1017,0 10
18.11.2017 23:00:00 9,0 1,0 12,8 52 28 58 31 WNW 1016,9 10
18.11.2017 22:00:00 10,0 1,0 12,8 52 28 - - WNW 1016,9 10
18.11.2017 21:00:00 9,0 4,0 12,7 41 22 54 29 WNW 1017,0 10
18.11.2017 20:00:00 10,0 3,0 12,8 44 24 47 25 WNW 1017,1 10
18.11.2017 19:00:00 10,0 4,0 - 44 24 - - W 1017,2 10
18.11.2017 18:00:00 10,0 6,0 12,8 35 19 54 29 WNW 1017,6 10
18.11.2017 17:00:00 10,0 5,0 12,8 46 25 50 27 WNW 1017,7 10

tt = temperatuur
td = dauwpunt
tw = water temperatuur
ff = windsnelheid
fx = windstoten
dd = windrichting
ppp = luchtdruk
vv = zicht

Weerstations in de omgeving